Stations météo

réclame
Mon MeteoGroup
Chassiron, France (7314): Température de l'air & dewpoint: 11.12.2017 03:00:00 - 17.12.2017 03:00:00 (CET)Chassiron, France (7314): Vitesse du vent & gusts: 11.12.2017 03:00:00 - 17.12.2017 03:00:00 (CET)Chassiron, France (7314): Direction du vent: 11.12.2017 03:00:00 - 17.12.2017 03:00:00 (CET)Chassiron, France (7314): reduced air pressure: 11.12.2017 03:00:00 - 17.12.2017 03:00:00 (CET)Chassiron, France (7314): visibility: 11.12.2017 03:00:00 - 17.12.2017 03:00:00 (CET)Chassiron, France (7314): Quantités de précipitations: 11.12.2017 03:00:00 - 17.12.2017 03:00:00 (CET)
Date & Time tt [°C] td [°C] ff [km/h] ff [knt] fx [km/h] fx [knt] dd ppp [hPa] vv [km] rr [mm]
17.12.2017 03:00:00 9,4 4,0 22 12 34 18 NW 1028,8 - 0,0
17.12.2017 02:00:00 9,0 3,4 21 11 27 15 WNW 1028,5 - 0,0
17.12.2017 01:00:00 8,4 4,0 15 8 24 13 NW 1028,8 - 0,0
17.12.2017 00:00:00 8,1 3,7 19 10 30 16 NNW 1029,0 - 0,0
16.12.2017 23:00:00 8,0 4,0 18 10 28 15 NNW 1028,4 - 0,0
16.12.2017 22:00:00 8,1 3,9 20 11 32 18 NNW 1027,9 15 0,0
16.12.2017 21:00:00 8,1 3,9 23 12 36 19 NNW 1027,8 - 0,0
16.12.2017 20:00:00 8,2 4,0 29 16 36 19 NNW 1027,1 - 0,0
16.12.2017 19:00:00 8,5 3,5 23 12 35 19 NNW 1026,4 15 0,0
16.12.2017 18:00:00 8,7 3,1 25 13 35 19 NW 1025,5 - 0,0
16.12.2017 17:00:00 8,6 3,4 18 10 28 15 NW 1024,9 - 0,0
16.12.2017 16:00:00 8,6 2,8 19 11 31 17 NNW 1024,0 16 0,0
16.12.2017 15:00:00 8,4 2,4 18 10 32 17 NNW 1023,6 - 0,0
16.12.2017 14:00:00 8,4 3,0 20 11 29 16 NNW 1023,3 - 0,0
16.12.2017 13:00:00 8,1 3,5 23 12 31 17 N 1023,3 - 0,0
16.12.2017 12:00:00 7,8 4,2 23 12 34 18 N 1022,9 - 0,0
16.12.2017 11:00:00 7,6 4,4 25 13 33 18 N 1022,1 - 0,0
16.12.2017 10:00:00 7,3 4,4 20 11 32 18 N 1021,0 16 0,0
16.12.2017 09:00:00 7,4 4,0 16 9 34 18 N 1019,9 - 0,0
16.12.2017 08:00:00 7,8 3,8 23 12 33 18 NNW 1019,1 - 0,0
16.12.2017 07:00:00 7,6 3,8 21 12 32 17 N 1018,0 12 0,0
16.12.2017 06:00:00 8,1 3,9 25 13 39 21 N 1017,3 - 0,0
16.12.2017 05:00:00 8,1 4,1 29 16 41 22 NNW 1016,8 - 0,0
16.12.2017 04:00:00 8,1 4,7 23 12 36 20 NNW 1016,4 10 0,0
16.12.2017 03:00:00 8,2 4,6 26 14 34 18 NNW 1015,7 - 0,0
16.12.2017 02:00:00 8,2 4,8 24 13 39 21 NNW 1014,7 - 0,0
16.12.2017 01:00:00 8,0 4,8 28 15 43 23 NNW 1014,3 - 0,0
16.12.2017 00:00:00 7,9 4,1 31 17 44 24 NNW 1013,6 - 0,0
15.12.2017 23:00:00 8,2 3,8 32 17 43 23 NNW 1012,6 - 0,0
15.12.2017 22:00:00 9,0 4,4 25 13 36 19 NNW 1011,7 15 0,0
15.12.2017 21:00:00 8,9 3,1 29 16 45 24 NNW 1010,9 - 0,0
15.12.2017 20:00:00 9,1 2,9 35 19 59 32 NNW 1009,8 - 0,0
15.12.2017 19:00:00 9,7 2,1 44 24 60 33 NNW 1008,5 15 0,0
15.12.2017 18:00:00 9,9 5,3 37 20 61 33 NW 1007,5 - 0,0
15.12.2017 17:00:00 9,9 5,5 42 23 63 34 NW 1006,7 - 0,0
15.12.2017 16:00:00 10,3 5,7 45 24 67 36 NW 1005,5 15 0,0
15.12.2017 15:00:00 10,5 6,3 42 23 61 33 NW 1005,0 - 0,0
15.12.2017 14:00:00 10,6 6,3 40 21 58 31 NW 1004,9 - 0,0
15.12.2017 13:00:00 9,2 6,6 24 13 36 20 NW 1005,1 15 0,0
15.12.2017 12:00:00 7,8 6,1 24 13 58 32 NW 1005,0 - 3,6
15.12.2017 11:00:00 7,7 4,3 38 20 63 34 WNW 1004,6 5 0,2
15.12.2017 10:00:00 9,6 5,8 33 18 61 33 W 1005,0 12 0,0
15.12.2017 09:00:00 9,9 5,5 38 20 56 30 W 1004,8 - 0,0
15.12.2017 08:00:00 9,8 6,3 34 18 57 31 WNW 1004,9 - 0,0
15.12.2017 07:00:00 9,4 5,8 34 18 70 38 NW 1004,6 10 0,6
15.12.2017 06:00:00 10,4 5,6 37 20 52 28 WNW 1004,4 - 0,0
15.12.2017 05:00:00 8,8 5,5 29 16 55 30 NW 1004,7 5 0,4
15.12.2017 04:00:00 10,4 6,2 36 19 67 36 WNW 1004,6 - 0,0
15.12.2017 03:00:00 10,5 5,7 39 21 62 34 WNW 1004,1 - 0,0
15.12.2017 02:00:00 10,6 4,7 44 24 67 36 WNW 1004,3 - 0,0
15.12.2017 01:00:00 10,7 4,8 42 23 67 36 WNW 1004,1 10 0,0
15.12.2017 00:00:00 10,5 4,0 52 28 79 42 W 1004,1 - 0,0
14.12.2017 23:00:00 10,4 6,2 42 23 76 41 W 1004,1 - 0,0
14.12.2017 22:00:00 10,1 6,1 41 22 76 41 W 1003,8 15 0,2
14.12.2017 21:00:00 9,1 6,4 46 25 71 38 W 1004,3 - 0,4
14.12.2017 20:00:00 9,2 6,8 53 28 92 50 WNW 1004,1 - 0,8
14.12.2017 19:00:00 10,7 8,1 47 26 84 45 W 1003,8 6 0,2
14.12.2017 18:00:00 11,4 7,5 53 29 89 48 W 1003,7 - 0,0
14.12.2017 17:00:00 11,9 8,0 53 29 86 47 W 1004,1 - 0,8
14.12.2017 16:00:00 11,5 7,8 48 26 80 43 W 1005,1 8 0,0
14.12.2017 15:00:00 12,5 7,6 54 29 81 44 W 1005,4 - 0,0
14.12.2017 14:00:00 12,4 8,5 48 26 81 44 W 1006,4 - 0,0
14.12.2017 13:00:00 11,9 8,7 43 23 64 35 WSW 1007,8 10 0,0
14.12.2017 12:00:00 11,5 9,1 38 20 53 29 WSW 1009,0 - 2,1
14.12.2017 11:00:00 12,0 8,7 39 21 51 28 WSW 1009,7 - 0,2
14.12.2017 10:00:00 11,8 8,5 33 18 50 27 WSW 1010,3 8 0,0
14.12.2017 09:00:00 11,4 8,8 34 19 46 25 WSW 1010,3 - 0,0
14.12.2017 08:00:00 11,2 8,6 27 15 43 23 W 1011,0 - 0,6
14.12.2017 07:00:00 10,9 8,6 29 16 39 21 W 1011,5 10 0,0
14.12.2017 06:00:00 10,3 8,9 27 15 50 27 W 1011,7 - 0,4
14.12.2017 05:00:00 10,5 9,3 27 14 64 35 W 1012,0 - 0,6
14.12.2017 04:00:00 11,6 9,0 40 21 58 31 W 1012,0 - 0,0
14.12.2017 03:00:00 10,7 8,8 44 24 74 40 W 1011,9 - 0,2
14.12.2017 02:00:00 12,3 7,6 45 25 66 36 W 1011,5 - 0,0
14.12.2017 01:00:00 12,3 7,8 45 24 61 33 W 1011,6 10 0,0
14.12.2017 00:00:00 12,2 7,7 47 25 74 40 W 1011,6 - 0,0
13.12.2017 23:00:00 12,3 8,8 42 23 65 35 W 1011,1 - 0,0
13.12.2017 22:00:00 12,3 9,3 41 22 60 33 W 1010,9 10 0,0
13.12.2017 21:00:00 12,6 9,6 43 23 61 33 W 1010,4 - 0,0
13.12.2017 20:00:00 12,4 9,9 40 22 67 36 W 1009,8 - 0,0
13.12.2017 19:00:00 12,6 10,5 45 25 80 43 W 1008,9 6 0,0
13.12.2017 18:00:00 13,0 10,5 57 31 82 44 W 1007,6 - 0,0
13.12.2017 17:00:00 12,8 12,2 53 28 75 40 SW 1007,0 - 0,2
13.12.2017 16:00:00 12,1 11,5 49 26 68 37 SW 1007,6 4,0 0,8
13.12.2017 15:00:00 11,5 10,6 42 23 67 36 SW 1009,3 4,0 0,2
13.12.2017 14:00:00 11,5 9,1 35 19 87 47 SW 1011,2 - 0,6
13.12.2017 13:00:00 12,4 9,9 33 18 49 26 SW 1012,6 8 0,0
13.12.2017 12:00:00 12,2 9,6 29 15 43 23 SW 1013,6 - 0,0
13.12.2017 11:00:00 12,3 8,8 32 17 45 24 WSW 1014,2 - 0,0
13.12.2017 10:00:00 12,1 9,3 23 12 43 23 WSW 1014,1 6 0,0
13.12.2017 09:00:00 12,0 9,0 33 18 46 25 W 1014,1 - 0,0
13.12.2017 08:00:00 11,8 9,7 32 18 80 43 WSW 1013,9 - 1,2
13.12.2017 07:00:00 11,4 10,9 46 25 71 39 SSW 1013,3 8 0,8
13.12.2017 06:00:00 11,2 10,4 44 24 61 33 SSW 1013,8 - 0,4
13.12.2017 05:00:00 10,9 9,7 40 22 55 30 SSW 1015,0 - 0,2
13.12.2017 04:00:00 11,7 8,0 31 17 50 27 SSW 1015,7 10 0,0
13.12.2017 03:00:00 11,8 7,7 32 18 47 26 SSW 1016,6 - 0,0
13.12.2017 02:00:00 11,3 7,4 30 16 41 22 SSW 1017,1 - 0,0
13.12.2017 01:00:00 11,0 6,9 29 16 43 23 SSW 1017,3 10 0,0
13.12.2017 00:00:00 10,5 6,8 21 12 44 24 SSW 1017,9 - 0,0
12.12.2017 23:00:00 11,0 6,3 23 13 33 18 SW 1018,4 - 0,0
12.12.2017 22:00:00 10,6 6,2 23 12 32 17 SW 1018,4 16 0,0
12.12.2017 21:00:00 9,5 4,7 12 7 46 25 SSW 1018,5 - 0,6
12.12.2017 20:00:00 10,5 4,2 17 9 23 12 WSW 1017,9 - 0,0
12.12.2017 19:00:00 10,1 4,0 17 9 24 13 WSW 1017,4 14 0,0
12.12.2017 18:00:00 8,4 5,7 7 4 19 11 WSW 1017,5 - 0,0
12.12.2017 17:00:00 7,9 4,8 9 5 21 11 SSE 1016,9 - 0,0
12.12.2017 16:00:00 9,5 4,9 9 5 28 15 SW 1016,2 15 0,0
12.12.2017 15:00:00 9,1 4,9 20 11 35 19 SW 1015,6 - 0,0
12.12.2017 14:00:00 9,1 4,5 27 14 37 20 SSW 1015,5 - 0,2
12.12.2017 13:00:00 9,0 5,0 29 16 42 23 SSW 1015,9 15 0,0
12.12.2017 12:00:00 9,0 4,8 27 14 36 19 SSW 1015,4 - 0,0
12.12.2017 11:00:00 7,7 4,5 27 15 45 25 WSW 1015,4 6 0,8
12.12.2017 10:00:00 5,3 1,4 14 8 23 13 SSE 1014,1 16 0,0
12.12.2017 09:00:00 3,4 -0,6 16 8 23 13 SSE 1013,3 - 0,0
12.12.2017 08:00:00 3,9 -0,7 11 6 14 8 SE 1012,8 - 0,0
12.12.2017 07:00:00 4,2 -0,8 3 2 10 5 SSE 1011,8 - 0,0
12.12.2017 06:00:00 5,7 -0,6 4 2 15 8 N 1010,8 - 0,0
12.12.2017 05:00:00 6,6 0,5 11 6 24 13 NNW 1009,8 - 0,0
12.12.2017 04:00:00 6,6 1,5 18 10 28 15 NNW 1008,7 14 0,0
12.12.2017 03:00:00 6,7 2,0 18 10 36 19 N 1007,2 - 0,0
12.12.2017 02:00:00 7,0 3,2 26 14 42 23 N 1005,8 - 0,0
12.12.2017 01:00:00 7,0 3,4 29 16 45 24 N 1005,0 14 0,0
12.12.2017 00:00:00 7,3 3,9 34 19 49 27 N 1003,5 - 0,0
11.12.2017 23:00:00 7,2 4,2 35 19 47 25 N 1002,0 - 0,0
11.12.2017 22:00:00 7,5 4,3 36 20 52 28 NNW 1000,0 - 0,0
11.12.2017 21:00:00 7,6 3,8 37 20 50 27 N 998,3 - 0,0
11.12.2017 20:00:00 8,0 4,0 33 18 55 30 N 996,1 - 0,0
11.12.2017 19:00:00 8,5 4,5 34 18 47 26 NNW 993,5 18 0,0
11.12.2017 18:00:00 9,2 3,8 33 18 50 27 NNW 991,3 - 0,0
11.12.2017 17:00:00 9,4 5,0 36 19 51 28 NNW 989,1 - 0,0
11.12.2017 16:00:00 9,7 5,1 37 20 54 29 NW 987,5 - 0,0
11.12.2017 15:00:00 10,2 5,6 35 19 53 29 NW 986,0 - 0,0
11.12.2017 14:00:00 10,2 5,8 36 19 57 31 NW 984,8 - 0,0
11.12.2017 13:00:00 10,4 6,5 35 19 61 33 WNW 983,9 - 0,0
11.12.2017 12:00:00 9,7 6,6 45 24 71 38 W 983,1 - 0,4
11.12.2017 11:00:00 10,2 6,2 49 27 77 42 W 981,5 - 0,0
11.12.2017 10:00:00 10,7 5,9 58 31 90 49 W 979,9 - 0,0
11.12.2017 09:00:00 10,8 5,1 74 40 116 62 W 977,7 - 0,0
11.12.2017 08:00:00 10,6 5,6 74 40 124 67 WSW 975,6 - 0,0
11.12.2017 07:00:00 10,5 5,9 84 45 129 69 WSW 974,2 - 0,0
11.12.2017 06:00:00 10,4 6,0 85 46 124 67 WSW 972,4 - 0,0
11.12.2017 05:00:00 10,7 6,3 85 46 127 69 SW 971,4 - 0,0
11.12.2017 04:00:00 11,2 6,5 82 45 125 67 SSW 971,1 - 0,0
11.12.2017 03:00:00 11,4 9,5 59 32 82 44 S 972,4 - 0,4

tt = Température de l'air
td = dewpoint
ff = Vitesse du vent
fx = gusts
dd = Direction du vent
ppp = reduced air pressure
vv = visibility
rr = Quantités de précipitations

stations d'obs. à proximité